Location: Aranbee
(34.0885°N, 118.2342°W)
Time: 23:44:55
(UTC+00:00)

Tiros 1 - Pass Details

Date: 26 November 2020
Orbit: 630 x 663 km, 48.4° (Epoch: 20 January)

Event Time Altitude Azimuth Distance (km) Brightness Sun altitude
Rises 23:39:47 0° 241° (WSW) 2,983 12.8 10.7°
Reaches altitude 10° 23:42:09 10° 245° (WSW) 2,072 12.3 10.3°
Maximum altitude 23:46:53 60° 325° (NW) 756 7.7 9.5°
Drops below altitude 10° 23:51:37 10° 46° (NE) 2,071 9.2 8.7°
Sets 23:54:00 0° 50° (NE) 2,981 9.9 8.3°
